TimeCDT,TemperatureF,Dew PointF,Humidity,Sea Level PressureIn,VisibilityMPH,Wind Direction,Wind SpeedMPH,Gust SpeedMPH,PrecipitationIn,Events,Conditions,WindDirDegrees,DateUTC
12:53 AM,73.9,66.0,76,29.88,10.0,Calm,Calm,-,N/A,,Clear,0,2013-08-21 05:53:00
1:53 AM,73.0,64.9,76,29.90,10.0,SSE,5.8,-,N/A,,Clear,160,2013-08-21 06:53:00
2:53 AM,72.0,64.9,78,29.89,10.0,South,3.5,-,N/A,,Clear,170,2013-08-21 07:53:00
3:53 AM,69.1,64.0,84,29.89,10.0,Calm,Calm,-,N/A,,Clear,0,2013-08-21 08:53:00
4:53 AM,68.0,64.9,90,29.90,9.0,ESE,4.6,-,N/A,,Clear,120,2013-08-21 09:53:00
5:53 AM,68.0,64.0,87,29.92,8.0,Calm,Calm,-,N/A,,Clear,0,2013-08-21 10:53:00
6:53 AM,64.9,63.0,93,29.92,6.0,Calm,Calm,-,N/A,,Clear,0,2013-08-21 11:53:00
7:53 AM,68.0,64.0,87,29.93,7.0,SSE,5.8,-,N/A,,Clear,150,2013-08-21 12:53:00
8:53 AM,72.0,66.0,81,29.94,9.0,South,5.8,-,N/A,,Clear,170,2013-08-21 13:53:00
9:53 AM,77.0,66.0,69,29.93,10.0,South,11.5,16.1,N/A,,Clear,180,2013-08-21 14:53:00
10:53 AM,79.0,66.0,64,29.94,10.0,South,9.2,-,N/A,,Clear,180,2013-08-21 15:53:00
11:53 AM,82.0,66.9,60,29.93,10.0,South,10.4,-,N/A,,Clear,180,2013-08-21 16:53:00
12:53 PM,84.0,68.0,58,29.92,10.0,South,9.2,-,N/A,,Clear,190,2013-08-21 17:53:00
1:53 PM,86.0,70.0,59,29.91,10.0,South,10.4,-,N/A,,Partly Cloudy,170,2013-08-21 18:53:00
2:53 PM,87.1,70.0,57,29.92,10.0,South,10.4,-,N/A,,Clear,170,2013-08-21 19:53:00
3:53 PM,88.0,71.1,57,29.91,10.0,SSE,11.5,-,N/A,,Clear,150,2013-08-21 20:53:00
4:53 PM,88.0,70.0,55,29.89,10.0,SE,10.4,-,N/A,,Clear,140,2013-08-21 21:53:00
5:53 PM,88.0,71.1,57,29.88,10.0,SE,11.5,-,N/A,,Clear,140,2013-08-21 22:53:00
6:53 PM,86.0,72.0,63,29.89,10.0,SE,9.2,-,N/A,,Clear,130,2013-08-21 23:53:00
7:53 PM,82.9,73.0,72,29.87,10.0,ESE,4.6,-,N/A,,Clear,120,2013-08-22 00:53:00
8:53 PM,80.1,73.0,79,29.88,10.0,East,3.5,-,N/A,,Partly Cloudy,80,2013-08-22 01:53:00
9:53 PM,79.0,73.0,82,29.87,10.0,East,3.5,-,N/A,,Partly Cloudy,80,2013-08-22 02:53:00
10:27 PM,75.2,69.8,83,29.96,10.0,North,28.8,38.0,N/A,Thunderstorm,Scattered Clouds,10,2013-08-22 03:27:00
10:42 PM,75.2,66.2,73,29.96,10.0,NNW,11.5,-,N/A,,Mostly Cloudy,340,2013-08-22 03:42:00
10:53 PM,73.0,64.9,76,29.95,10.0,North,11.5,26.5,N/A,Thunderstorm,Thunderstorm,10,2013-08-22 03:53:00
11:53 PM,68.0,66.0,93,29.99,7.0,ENE,9.2,25.3,0.18,Rain-Thunderstorm,Light Thunderstorms and Rain,70,2013-08-22 04:53:00